Location: Ravensburg
(47.7866°N, 9.6124°E)
Time: 06:38:39
(UTC+02:00)

METEOR M2 - Pass Details

Date: 23 March 2026
Orbit: 817 x 824 km, 98.5° (Epoch: 15 April)

Event Time Altitude Azimuth Distance (km) Brightness Sun altitude
Rises 04:34:03 0° 16° (NNE) 3,373 ? -17.9°
Reaches altitude 10° 04:36:27 10° 20° (NNE) 2,435 ? -17.6°
Maximum altitude 04:41:48 65° 102° (ESE) 909 ? -16.7°
Drops below altitude 10° 04:47:07 10° 184° (S) 2,415 ? -15.9°
Sets 04:49:29 0° 187° (S) 3,342 ? -15.5°
